Flag for Poland Weather past 2 weeks in Bydgoszcz, Poland

Now
74 °F

Overcast.


Feels Like: 77 °F
Forecast: 55 / 80 °F
Wind: 3 mph from Northwest

Location: Torun

Current Time: Jul 31, 2014 at 7:04:59 PM

Latest Report: Jul 31, 2014 at 6:00 PM


Visibility: 28 mi

Pressure: 29.89 "Hg

Humidity: 59%

Dew point: 58 °F

Location of BydgoszczLocation

Historic Weather in Bydgoszcz — Graph

°F

Bydgoszcz temperature yesterday

Maximum temperature yesterday: 86 °F (at 4:00 PM)
Minimum temperature yesterday: 66 °F (at 3:00 AM)
Average temperature yesterday: 76 °F

Past Weeks' High & Low Weather Summary

 TemperatureHumidityPressure
High90 °F (Jul 29, 5:00 PM)95% (Jul 26, 8:00 AM)30.18 "Hg (Jul 26, 8:00 AM)
Low58 °F (Jul 19, 4:00 AM)27% (Jul 21, 4:00 PM)29.69 "Hg (Jul 30, 7:00 PM)
Average74 °F61%29.96 "Hg
* Reported Jul 16 5:00 PM — Jul 31 5:00 PM, Bydgoszcz, Weather by CustomWeather, © 2014

Note: Actual official high and low records may vary slightly from our data, if they occured in-between our weather recording intervals... More about our weather records

Advertising

Bydgoszcz weather history for previous 24 hours

 ConditionsComfort  
Time TempWeatherWind HumidityBarometerVisibility
5:00 PM
Jul 31
74 °FOvercast.3 mph56%29.89 "Hg28 mi
4:00 PM75 °FOvercast.3 mph54%29.89 "Hg25 mi
3:00 PM76 °FOvercast.3 mph54%29.87 "Hg31 mi
2:00 PM76 °FOvercast.3 mph58%29.87 "Hg28 mi
1:00 PM76 °FOvercast.3 mph59%29.86 "Hg25 mi
12:00 PM73 °FOvercast.2 mph72%29.86 "Hg25 mi
11:00 AM72 °FOvercast.3 mph77%29.85 "Hg18 mi
10:00 AM73 °FOvercast.2 mph81%29.83 "Hg9 mi
9:00 AM70 °FOvercast.1 mph88%29.82 "Hg6 mi
8:00 AM69 °FLow clouds.1 mph90%29.81 "Hg6 mi
7:00 AM69 °FLow clouds.2 mph91%29.79 "Hg6 mi
6:00 AM67 °FFog.1 mph93%29.78 "Hg5 mi
5:00 AM67 °FFog.1 mph94%29.77 "Hg4 mi
4:00 AM67 °FFog.1 mph92%29.75 "Hg5 mi
3:00 AM68 °FPassing clouds.2 mph87%29.75 "Hg8 mi
2:00 AM69 °FPassing clouds.1 mph83%29.74 "Hg11 mi
1:00 AM70 °FPassing clouds.1 mph81%29.74 "Hg12 mi
12:00 AM72 °FPassing clouds.1 mph76%29.73 "Hg14 mi
11:00 PM
Jul 30
74 °FOvercast.1 mph69%29.72 "Hg18 mi
10:00 PM76 °FOvercast.1 mph63%29.73 "Hg19 mi
9:00 PM78 °FOvercast.2 mph58%29.72 "Hg25 mi
8:00 PM81 °FOvercast.1 mph53%29.70 "Hg22 mi
7:00 PM84 °FOvercast.2 mph44%29.69 "Hg25 mi
Weather by CustomWeather, © 2014

See weather overviewHow to use our weather pages